Sioux City, IA

10:09 PM CDT on May 25, 2017 (GMT -0500)
Sioux Gateway

Weather History for KSUX - February, 2014

Change the Weather History Date:

Friday, February 14, 2014

  Actual Average Record
Temperature  
Mean Temperature 17 °F 25 °F  
Max Temperature 26 °F 34 °F 62 °F (1934)
Min Temperature 8 °F 15 °F -22 °F (1936)
Degree Days  
Heating Degree Days 48 40  
Month to date heating degree days 738 588  
Since 1 July heating degree days 5053 4764  
Cooling Degree Days 0 0  
Month to date cooling degree days 0 0  
Year to date cooling degree days 0 0  
Moisture  
Dew Point 7 °F    
Average Humidity 63    
Maximum Humidity 80    
Minimum Humidity 46    
Precipitation  
Precipitation T in 0.02 in 0.85 in (2003)
Month to date precipitation 0.15 0.29  
Year to date precipitation 0.34 0.91  
Snow  
Snow T in 0.30 in 5.00 in (1918)
Month to date snowfall 3.5 3.4  
Since 1 July snowfall 8.8 23.3  
Snow Depth 1.00 in    
Sea Level Pressure  
Sea Level Pressure 30.00 in    
Wind  
Wind Speed 11 mph (North)    
Max Wind Speed 20 mph    
Max Gust Speed 24 mph    
Visibility 10 miles    
Events Snow    
T = Trace of Precipitation, MM = Missing Value Source: NWS Daily Summary

Daily Weather History Graph

Daily Weather History Graph

Search for Another Location

Airport or City:

Trip Planner

Search our weather history database for the weather conditions in past years. The results will help you decide how hot, cold, wet, or windy it might be!

Date:

Astronomy

Feb. 14, 2014 Rise Set
Actual Time 7:23 AM CST 5:56 PM CST
Civil Twilight 6:54 AM CST 6:25 PM CST
Nautical Twilight 6:21 AM CST 6:58 PM CST
Astronomical Twilight 5:49 AM CST 7:31 PM CST
Moon 6:02 PM CST (2/14) 6:50 AM CST (2/14)
Length of Visible Light 11h 31m
Length of Day
10h 33m
Full, 100% of the Moon is Illuminated
Feb 14
Full
Feb 14
Full
Feb 22
Last Quarter
Mar 1
New
Mar 8
First Quarter

Hourly Weather History & Observations

Time (CST) Temp. Windchill Dew Point Humidity Pressure Visibility Wind Dir Wind Speed Gust Speed Precip Events Conditions
12:52 AM 19.9 °F 11.1 °F 7.0 °F 57% 29.79 in 10.0 mi ENE 6.9 mph - N/A   Overcast
1:52 AM 18.0 °F 6.9 °F 10.0 °F 71% 29.77 in 6.0 mi NE 9.2 mph - 0.00 in Snow Light Snow
2:52 AM 18.0 °F 5.4 °F 10.0 °F 71% 29.80 in 10.0 mi North 11.5 mph - 0.00 in   Overcast
3:52 AM 18.0 °F 5.4 °F 10.0 °F 71% 29.81 in 10.0 mi North 11.5 mph - N/A   Overcast
4:35 AM 18.0 °F 2.6 °F 10.0 °F 71% 29.80 in 10.0 mi North 17.3 mph - N/A   Overcast
4:52 AM 17.1 °F 2.5 °F 10.0 °F 74% 29.85 in 10.0 mi North 15.0 mph - N/A   Overcast
5:52 AM 16.0 °F 0.6 °F 9.0 °F 74% 29.88 in 10.0 mi North 16.1 mph - N/A   Overcast
6:30 AM 16.0 °F 1.7 °F 10.0 °F 77% 29.86 in 10.0 mi North 13.8 mph - N/A   Overcast
6:42 AM 16.0 °F 2.9 °F 10.9 °F 81% 29.87 in 10.0 mi North 11.5 mph - 0.00 in   Overcast
6:52 AM 16.0 °F 4.4 °F 10.9 °F 81% 29.93 in 10.0 mi North 9.2 mph - 0.00 in   Overcast
7:40 AM 15.1 °F -0.1 °F 9.0 °F 77% 29.92 in 10.0 mi North 15.0 mph - N/A   Overcast
7:52 AM 15.1 °F 1.1 °F 9.0 °F 77% 29.99 in 10.0 mi North 12.7 mph - N/A   Overcast
8:22 AM 15.1 °F 1.1 °F 8.1 °F 74% 29.95 in 10.0 mi NNW 12.7 mph - 0.00 in   Overcast
8:52 AM 15.1 °F -0.1 °F 7.0 °F 70% 30.02 in 10.0 mi North 15.0 mph - 0.00 in   Overcast
9:38 AM 16.0 °F 1.1 °F 7.0 °F 68% 29.99 in 10.0 mi North 15.0 mph - N/A   Mostly Cloudy
9:52 AM 17.1 °F 2.0 °F 7.0 °F 65% 30.05 in 10.0 mi North 16.1 mph - N/A   Scattered Clouds
10:52 AM 19.0 °F 5.0 °F 7.0 °F 59% 30.09 in 10.0 mi North 15.0 mph - N/A   Clear
11:52 AM 19.9 °F 7.3 °F 6.1 °F 55% 30.10 in 10.0 mi NNW 12.7 mph - N/A   Partly Cloudy
12:52 PM 21.9 °F 8.2 °F 7.0 °F 53% 30.10 in 10.0 mi NNW 16.1 mph - N/A   Clear
1:52 PM 24.1 °F 12.5 °F 7.0 °F 48% 30.10 in 10.0 mi NW 12.7 mph 19.6 mph N/A   Clear
2:52 PM 24.1 °F 11.0 °F 6.1 °F 46% 30.11 in 10.0 mi NW 16.1 mph - N/A   Clear
3:52 PM 25.0 °F 14.2 °F 7.0 °F 46% 30.10 in 10.0 mi NNW 11.5 mph - N/A   Clear
4:52 PM 24.1 °F 13.1 °F 6.1 °F 46% 30.12 in 10.0 mi NW 11.5 mph - N/A   Clear
5:52 PM 19.9 °F 9.3 °F 5.0 °F 52% 30.15 in 10.0 mi NW 9.2 mph - N/A   Clear
6:52 PM 17.1 °F 8.7 °F 6.1 °F 62% 30.12 in 10.0 mi NNE 5.8 mph - N/A   Clear
7:52 PM 15.1 °F 6.4 °F 5.0 °F 64% 30.13 in 10.0 mi ENE 5.8 mph - N/A   Clear
8:52 PM 10.0 °F - 3.0 °F 73% 30.15 in 10.0 mi Calm Calm - N/A   Clear
9:52 PM 12.0 °F 1.5 °F 3.9 °F 70% 30.14 in 10.0 mi East 6.9 mph - N/A   Clear
10:52 PM 10.0 °F 0.4 °F 3.9 °F 76% 30.09 in 10.0 mi ESE 5.8 mph - N/A   Clear
11:52 PM 10.9 °F 0.2 °F 3.9 °F 73% 30.08 in 10.0 mi SSE 6.9 mph - N/A   Clear